This demonstration page uses our WeatherBlox Daily Observations layout. Learn more.

Left ArrowRight Arrow

41.55636, -103.73856

Hourly Observations for December 27, 2017

Temp ( °F °C ) Dew Point ( °F °C ) Humidity (%) Winds ( mph kmh ) Pressure ( in mb ) Visibility ( mi km ) Precip ( " mm )
12:53 am 00:53 Clear -14 -25.6 -17 -27.2 86 86 WNW 8 13 30.58 1035 10 16 N/A
1:53 am 01:53 Clear -15 -26.1 -19 -28.3 82 82 WNW 6 9 30.55 1035 10 16 N/A
2:53 am 02:53 Clear -14 -25.6 -17 -27.2 86 86 NNW 5 7 30.55 1035 9 14 N/A
3:53 am 03:53 Partly Cloudy -15 -26.1 -19 -28.3 82 82 NW 5 7 30.53 1034 10 16 N/A
4:00 am 04:00 Mostly Cloudy -15 -26 -18 -28 83 83 NW 5 7 30.77 1042 10 16 N/A
4:53 am 04:53 Cloudy -13 -25 -17 -27.2 82 82 N N/A 30.51 1033 10 16 N/A
5:53 am 05:53 Mostly Cloudy -11 -23.9 -15 -26.1 82 82 NW 3 6 30.51 1033 10 16 N/A
6:09 am 06:09 Partly Cloudy -10 -23.3 -14 -25.6 81 81 NW 5 7 30.68 1039 10 16 N/A
6:53 am 06:53 Clear -11 -23.9 -16 -26.7 78 78 N N/A 30.46 1032 10 16 N/A
7:53 am 07:53 Partly Cloudy -12 -24.4 -16 -26.7 81 81 WNW 7 11 30.47 1032 9 14 N/A
8:13 am 08:13 Partly Cloudy -8 -22.2 -13 -25 78 78 NW 6 9 30.65 1038 9 14 N/A
8:24 am 08:24 Mostly Cloudy -8 -22 -11 -24 84 84 NNW 5 7 30.62 1037 8 13 N/A
8:42 am 08:42 Partly Cloudy -6 -21 -11 -24 77 77 WNW 6 9 30.62 1037 8 13 N/A
8:53 am 08:53 Mostly Sunny -5 -20.6 -9 -22.8 83 83 WNW 5 7 30.42 1030 9 14 N/A
9:34 am 09:34 Mostly Cloudy -3 -19.4 -8 -22.2 79 79 NW 6 9 30.59 1036 8 13 N/A
9:53 am 09:53 Hazy -3 -19.4 -8 -22.2 79 79 WNW 8 13 30.41 1030 5 8 N/A
10:53 am 10:53 Sunny N/A -5 -20.6 79 79 WNW 5 7 30.38 1029 9 14 N/A
11:53 am 11:53 Cloudy 3 -16.1 -2 -18.9 79 79 NW 3 6 30.38 1029 9 14 N/A
12:53 pm 12:53 Cloudy 4 -15.6 -1 -18.3 80 80 W 5 7 30.35 1028 8 13 N/A
1:53 pm 13:53 Mostly Cloudy 4 -15.6 -1 -18.3 80 80 WNW 5 7 30.36 1028 7 11 N/A
2:53 pm 14:53 Sunny 3 -16.1 -1 -18.3 83 83 WNW 5 7 30.36 1028 8 13 N/A
3:53 pm 15:53 Sunny 5 -15 -1 -18.3 76 76 NNW 5 7 30.35 1028 7 11 N/A
4:53 pm 16:53 Clear 5 -15 1 -17.2 83 83 NNW 5 7 30.35 1028 9 14 N/A
5:53 pm 17:53 Clear 6 -14.4 1 -17.2 79 79 N N/A 30.34 1028 9 14 N/A
6:53 pm 18:53 Clear 8 -13.3 2 -16.7 76 76 N N/A 30.33 1027 9 14 N/A
7:53 pm 19:53 Mostly Cloudy 8 -13.3 3 -16.1 80 80 N N/A 30.33 1027 8 13 N/A
8:53 pm 20:53 Cloudy 9 -12.8 4 -15.6 80 80 ESE 6 9 30.30 1026 8 13 N/A
9:53 pm 21:53 Clear 8 -13.3 3 -16.1 80 80 N 3 6 30.29 1026 8 13 N/A
10:53 pm 22:53 Clear 5 -15 2 -16.7 87 87 N N/A 30.29 1026 7 11 N/A
11:53 pm 23:53 Clear 1 -17.2 -2 -18.9 87 87 N 7 11 30.30 1026 7 11 N/A

Powered by AerisWeather